Regional Weather Roundup
Issued by NWS Glasgow, MT

Home | Current Version | Previous Version | Text Only | Print | Product List | Glossary On
Versions: 1 2 3 4 5 6 7 8 9 10 11 12 13 14 15 16 17 18 19 20 21 22 23 24 25 26 27 28
000
ASUS45 KGGW 051515
RWRGGW
HOURLY REGIONAL WEATHER ROUNDUP FOR NORTHEAST MONTANA
NATIONAL WEATHER SERVICE GLASGOW MONTANA
900 AM MDT THU MAY 05 2016

NOTE: "FAIR" INDICATES FEW OR NO CLOUDS BELOW 12,000 FEET WITH NO
SIGNIFICANT WEATHER AND/OR OBSTRUCTIONS TO VISISBILITY.

NORTHEAST MONTANA


CITY           SKY/WX    TMP DP  RH WIND       PRES   REMARKS
GLASGOW        SUNNY     65  46  50 S6        29.82S
PLENTYWOOD       N/A     68  45  43 S3          N/A
WOLF POINT     SUNNY     67  48  50 CALM      29.83S
JORDAN           N/A     67  49  52 W6        29.84S
WINNETT          N/A     58  44  60 S1          N/A
SIDNEY         SUNNY     64  46  52 S12       29.86S
GLENDIVE       SUNNY     66  46  48 S5        29.90S
MALTA            N/A     59  47  64 SW6         N/A
SCOBEY           N/A     70  42  36 SE8       29.81F
OPHEIM           N/A     61  39  44 CALM      29.59R

FORT PECK REPORTS


CITY           SKY/WX    TMP DP  RH WIND       PRES   REMARKS
FORT PECK        N/A     60  50  69 SE8         N/A
THE PINES        N/A     66  42  41 SW3G12      N/A

SOUTHEAST MONTANA


CITY           SKY/WX    TMP DP  RH WIND       PRES   REMARKS
BILLINGS       CLOUDY    59  39  47 SW15      29.93S
MILES CITY     SUNNY     65  45  48 S9        29.88S
BAKER          SUNNY     70  47  43 S6        29.92S
LIVINGSTON     CLOUDY    56  38  50 NW13      29.98S

CENTRAL MONTANA


CITY           SKY/WX    TMP DP  RH WIND       PRES   REMARKS
HAVRE          MOSUNNY   57  45  64 SW9       29.88R
LEWISTOWN      CLOUDY    59  40  49 VRB6      29.93S
GREAT FALLS    CLOUDY    57  42  57 SW8       29.91S
CUT BANK       MOSUNNY   63  43  48 N8        29.92R
HELENA         CLOUDY    56  38  50 CALM      29.97R
BUTTE          CLOUDY    53  33  46 CALM      30.02S
BOZEMAN        CLOUDY    60  40  47 S5        29.98S

WESTERN MONTANA


CITY           SKY/WX    TMP DP  RH WIND       PRES   REMARKS
MISSOULA       CLOUDY    52  44  74 SW15G32   29.96F
KALISPELL      NOT AVBL

NORTH DAKOTA


CITY           SKY/WX    TMP DP  RH WIND       PRES   REMARKS
WILLISTON      SUNNY     68  46  45 SW8       29.85F
DICKINSON      SUNNY     68  45  43 S12       29.89S
MINOT          SUNNY     77  43  29 SW16      29.83F
BISMARCK       SUNNY     73  43  33 SW9       29.92F

SOUTHERN SASKATCHEWAN


CITY           SKY/WX    TMP DP  RH WIND       PRES   REMARKS
REGINA         PTSUNNY   72  41  33 S6        29.77F
MOOSE JAW      PTSUNNY   79  43  27 W8        29.76F
ESTEVAN        CLOUDY    72  48  43 SW9       29.82
SWIFT CURRENT  SUNNY     72  39  30 W15       29.79S





USA.gov is the U.S. government's official web portal to all federal, state and local government web resources and services.